Location: Alfortville
(48.8058°N, 2.4204°E)
Time: 02:59:54
(UTC+00:00)

Envisat - Pass Details

Date: 29 November 2022
Orbit: 763 x 765 km, 98.2° (Epoch: 28 January)

Event Time Altitude Azimuth Distance (km) Brightness Sun altitude
Rises 05:08:02 0° 7° (N) 3,246 6.2 -20.9°
Reaches altitude 10° 05:10:30 10° 358° (N) 2,315 5.4 -20.5°
Enters shadow 05:13:55 31° 322° (NW) 1,337 3.8 -19.9°
